Year,Month,Day,Hour,Minute,Value (Times are PST for temperature in C)
2021,04,22,00,00,8.60
2021,04,22,00,01,8.60
2021,04,22,00,02,8.60
2021,04,22,00,03,8.60
2021,04,22,00,04,8.70
2021,04,22,00,05,8.70
2021,04,22,00,06,8.70
2021,04,22,00,07,8.70
2021,04,22,00,08,8.70
2021,04,22,00,09,8.70
2021,04,22,00,10,8.70
2021,04,22,00,11,8.70
2021,04,22,00,12,8.70
2021,04,22,00,13,8.70
2021,04,22,00,14,8.70
2021,04,22,00,15,8.70
2021,04,22,00,16,8.70
2021,04,22,00,17,8.80
2021,04,22,00,18,8.80
2021,04,22,00,19,8.90
2021,04,22,00,20,8.90
2021,04,22,00,21,8.90
2021,04,22,00,22,9.00
2021,04,22,00,23,9.00
2021,04,22,00,24,9.00
2021,04,22,00,25,9.00
2021,04,22,00,26,9.00
2021,04,22,00,27,9.00
2021,04,22,00,28,9.00
2021,04,22,00,29,8.90
2021,04,22,00,30,8.90
2021,04,22,00,31,8.80
2021,04,22,00,32,8.70
2021,04,22,00,33,8.70
2021,04,22,00,34,8.70
2021,04,22,00,35,8.80
2021,04,22,00,36,8.80
2021,04,22,00,37,8.90
2021,04,22,00,38,8.90
2021,04,22,00,39,8.90
2021,04,22,00,40,8.90
2021,04,22,00,41,8.90
2021,04,22,00,42,8.90
2021,04,22,00,43,8.90
2021,04,22,00,44,8.90
2021,04,22,00,45,8.80
2021,04,22,00,46,8.80
2021,04,22,00,47,8.70
2021,04,22,00,48,8.70
2021,04,22,00,49,8.70
2021,04,22,00,50,8.70
2021,04,22,00,51,8.70
2021,04,22,00,52,8.70
2021,04,22,00,53,8.60
2021,04,22,00,54,8.50
2021,04,22,00,55,8.50
2021,04,22,00,56,8.40
2021,04,22,00,57,8.40
2021,04,22,00,58,8.30
2021,04,22,00,59,8.30
2021,04,22,01,00,8.20
2021,04,22,01,01,8.20
2021,04,22,01,02,8.20
2021,04,22,01,03,8.20
2021,04,22,01,04,8.10
2021,04,22,01,05,8.10
2021,04,22,01,06,8.00
2021,04,22,01,07,8.00
2021,04,22,01,08,8.00
2021,04,22,01,09,8.00
2021,04,22,01,10,7.90
2021,04,22,01,11,7.90
2021,04,22,01,12,7.90
2021,04,22,01,13,7.90
2021,04,22,01,14,7.90
2021,04,22,01,15,7.80
2021,04,22,01,16,7.80
2021,04,22,01,17,7.80
2021,04,22,01,18,7.70
2021,04,22,01,19,7.70
2021,04,22,01,20,7.70
2021,04,22,01,21,7.70
2021,04,22,01,22,7.60
2021,04,22,01,23,7.70
2021,04,22,01,24,7.70
2021,04,22,01,25,7.70
2021,04,22,01,26,7.70
2021,04,22,01,27,7.60
2021,04,22,01,28,7.60
2021,04,22,01,29,7.60
2021,04,22,01,30,7.60
2021,04,22,01,31,7.60
2021,04,22,01,32,7.70
2021,04,22,01,33,7.70
2021,04,22,01,34,7.70
2021,04,22,01,35,7.70
2021,04,22,01,36,7.70
2021,04,22,01,37,7.60
2021,04,22,01,38,7.60
2021,04,22,01,39,7.60
2021,04,22,01,40,7.60
2021,04,22,01,41,7.60
2021,04,22,01,42,7.60
2021,04,22,01,43,7.60
2021,04,22,01,44,7.60
2021,04,22,01,45,7.60
2021,04,22,01,46,7.70
2021,04,22,01,47,7.60
2021,04,22,01,48,7.60
2021,04,22,01,49,7.60
2021,04,22,01,50,7.60
2021,04,22,01,51,7.60
2021,04,22,01,52,7.60
2021,04,22,01,53,7.60
2021,04,22,01,54,7.60
2021,04,22,01,55,7.60
2021,04,22,01,56,7.60
2021,04,22,01,57,7.60
2021,04,22,01,58,7.50
2021,04,22,01,59,7.40
2021,04,22,02,00,7.40
2021,04,22,02,01,7.30
2021,04,22,02,02,7.30
2021,04,22,02,03,7.30
2021,04,22,02,04,7.30
2021,04,22,02,05,7.30
2021,04,22,02,06,7.30
2021,04,22,02,07,7.30
2021,04,22,02,08,7.30
2021,04,22,02,09,7.20
2021,04,22,02,10,7.20
2021,04,22,02,11,7.10
2021,04,22,02,12,7.10
2021,04,22,02,13,7.00
2021,04,22,02,14,6.90
2021,04,22,02,15,6.90
2021,04,22,02,16,6.80
2021,04,22,02,17,6.80
2021,04,22,02,18,6.80
2021,04,22,02,19,6.80
2021,04,22,02,20,6.80
2021,04,22,02,21,6.70
2021,04,22,02,22,6.70
2021,04,22,02,23,6.70
2021,04,22,02,24,6.70
2021,04,22,02,25,6.70
2021,04,22,02,26,6.60
2021,04,22,02,27,6.60
2021,04,22,02,28,6.60
2021,04,22,02,29,6.60
2021,04,22,02,30,6.60
2021,04,22,02,31,6.60
2021,04,22,02,32,6.60
2021,04,22,02,33,6.60
2021,04,22,02,34,6.60
2021,04,22,02,35,6.60
2021,04,22,02,36,6.60
2021,04,22,02,37,6.60
2021,04,22,02,38,6.60
2021,04,22,02,39,6.60
2021,04,22,02,40,6.60
2021,04,22,02,41,6.70
2021,04,22,02,42,6.70
2021,04,22,02,43,6.70
2021,04,22,02,44,6.80
2021,04,22,02,45,6.80
2021,04,22,02,46,6.80
2021,04,22,02,47,6.80
2021,04,22,02,48,6.80
2021,04,22,02,49,6.80
2021,04,22,02,50,6.80
2021,04,22,02,51,6.80
2021,04,22,02,52,6.80
2021,04,22,02,53,6.80
2021,04,22,02,54,6.80
2021,04,22,02,55,6.80
2021,04,22,02,56,6.90
2021,04,22,02,57,6.90
2021,04,22,02,58,6.80
2021,04,22,02,59,6.80
2021,04,22,03,00,6.80
2021,04,22,03,01,6.80
2021,04,22,03,02,6.80
2021,04,22,03,03,6.70
2021,04,22,03,04,6.70
2021,04,22,03,05,6.70
2021,04,22,03,06,6.70
2021,04,22,03,07,6.70
2021,04,22,03,08,6.70
2021,04,22,03,09,6.70
2021,04,22,03,10,6.70
2021,04,22,03,11,6.70
2021,04,22,03,12,6.70
2021,04,22,03,13,6.70
2021,04,22,03,14,6.80
2021,04,22,03,15,6.80
2021,04,22,03,16,6.80
2021,04,22,03,17,6.80
2021,04,22,03,18,6.80
2021,04,22,03,19,6.70
2021,04,22,03,20,6.60
2021,04,22,03,21,6.50
2021,04,22,03,22,6.40
2021,04,22,03,23,6.30
2021,04,22,03,24,6.30
2021,04,22,03,25,6.30
2021,04,22,03,26,6.40
2021,04,22,03,27,6.40
2021,04,22,03,28,6.40
2021,04,22,03,29,6.40
2021,04,22,03,30,6.40
2021,04,22,03,31,6.40
2021,04,22,03,32,6.40
2021,04,22,03,33,6.40
2021,04,22,03,34,6.40
2021,04,22,03,35,6.40
2021,04,22,03,36,6.40
2021,04,22,03,37,6.40
2021,04,22,03,38,6.30
2021,04,22,03,39,6.30
2021,04,22,03,40,6.20
2021,04,22,03,41,6.20
2021,04,22,03,42,6.20
2021,04,22,03,43,6.20
2021,04,22,03,44,6.20
2021,04,22,03,45,6.20
2021,04,22,03,46,6.20
2021,04,22,03,47,6.20
2021,04,22,03,48,6.30
2021,04,22,03,49,6.30
2021,04,22,03,50,6.40
2021,04,22,03,51,6.40
2021,04,22,03,52,6.40
2021,04,22,03,53,6.40
2021,04,22,03,54,6.50
2021,04,22,03,55,6.60
2021,04,22,03,56,6.60
2021,04,22,03,57,6.60
2021,04,22,03,58,6.60
2021,04,22,03,59,6.60
2021,04,22,04,00,6.60
2021,04,22,04,01,6.50
2021,04,22,04,02,6.40
2021,04,22,04,03,6.40
2021,04,22,04,04,6.40
2021,04,22,04,05,6.40
2021,04,22,04,06,6.40
2021,04,22,04,07,6.30
2021,04,22,04,08,6.30
2021,04,22,04,09,6.30
2021,04,22,04,10,6.20
2021,04,22,04,11,6.20
2021,04,22,04,12,6.20
2021,04,22,04,13,6.20
2021,04,22,04,14,6.10
2021,04,22,04,15,6.10
2021,04,22,04,16,6.10
2021,04,22,04,17,6.10
2021,04,22,04,18,6.10
2021,04,22,04,19,6.10
2021,04,22,04,20,6.10
2021,04,22,04,21,6.10
2021,04,22,04,22,6.10
2021,04,22,04,23,6.20
2021,04,22,04,24,6.20
2021,04,22,04,25,6.10
2021,04,22,04,26,6.10
2021,04,22,04,27,6.10
2021,04,22,04,28,6.10
2021,04,22,04,29,6.10
2021,04,22,04,30,6.10
2021,04,22,04,31,6.10
2021,04,22,04,32,6.10
2021,04,22,04,33,6.20
2021,04,22,04,34,6.20
2021,04,22,04,35,6.20
2021,04,22,04,36,6.20
2021,04,22,04,37,6.20
2021,04,22,04,38,6.20
2021,04,22,04,39,6.20
2021,04,22,04,40,6.10
2021,04,22,04,41,6.10
2021,04,22,04,42,6.10
2021,04,22,04,43,6.10
2021,04,22,04,44,6.10
2021,04,22,04,45,6.00
2021,04,22,04,46,6.00
2021,04,22,04,47,6.00
2021,04,22,04,48,6.00
2021,04,22,04,49,6.10
2021,04,22,04,50,6.10
2021,04,22,04,51,6.20
2021,04,22,04,52,6.20
2021,04,22,04,53,6.30
2021,04,22,04,54,6.40
2021,04,22,04,55,6.40
2021,04,22,04,56,6.40
2021,04,22,04,57,6.40
2021,04,22,04,58,6.40
2021,04,22,04,59,6.40
2021,04,22,05,00,6.40
2021,04,22,05,01,6.30
2021,04,22,05,02,6.20
2021,04,22,05,03,6.20
2021,04,22,05,04,6.10
2021,04,22,05,05,6.00
2021,04,22,05,06,5.90
2021,04,22,05,07,5.80
2021,04,22,05,08,5.70
2021,04,22,05,09,5.70
2021,04,22,05,10,5.70
2021,04,22,05,11,5.70
2021,04,22,05,12,5.70
2021,04,22,05,13,5.80
2021,04,22,05,14,5.80
2021,04,22,05,15,5.80
2021,04,22,05,16,5.80
2021,04,22,05,17,5.80
2021,04,22,05,18,5.80
2021,04,22,05,19,5.90
2021,04,22,05,20,5.90
2021,04,22,05,21,5.90
2021,04,22,05,22,5.90
2021,04,22,05,23,5.90
2021,04,22,05,24,5.90
2021,04,22,05,25,5.80
2021,04,22,05,26,5.80
2021,04,22,05,27,5.80
2021,04,22,05,28,5.80
2021,04,22,05,29,5.80
2021,04,22,05,30,5.70
2021,04,22,05,31,5.70
2021,04,22,05,32,5.70
2021,04,22,05,33,5.70
2021,04,22,05,34,5.70
2021,04,22,05,35,5.70
2021,04,22,05,36,5.70
2021,04,22,05,37,5.70
2021,04,22,05,38,5.60
2021,04,22,05,39,5.60
2021,04,22,05,40,5.50
2021,04,22,05,41,5.50
2021,04,22,05,42,5.50
2021,04,22,05,43,5.50
2021,04,22,05,44,5.60
2021,04,22,05,45,5.60
2021,04,22,05,46,5.60
2021,04,22,05,47,5.60
2021,04,22,05,48,5.50
2021,04,22,05,49,5.50
2021,04,22,05,50,5.40
2021,04,22,05,51,5.30
2021,04,22,05,52,5.30
2021,04,22,05,53,5.30
2021,04,22,05,54,5.30
2021,04,22,05,55,5.30
2021,04,22,05,56,5.20
2021,04,22,05,57,5.20
2021,04,22,05,58,5.30
2021,04,22,05,59,5.30
2021,04,22,06,00,5.30
2021,04,22,06,01,5.30
2021,04,22,06,02,5.30
2021,04,22,06,03,5.30
2021,04,22,06,04,5.20
2021,04,22,06,05,5.20
2021,04,22,06,06,5.20
2021,04,22,06,07,5.20
2021,04,22,06,08,5.20
2021,04,22,06,09,5.20
2021,04,22,06,10,5.20
2021,04,22,06,11,5.20
2021,04,22,06,12,5.20
2021,04,22,06,13,5.20
2021,04,22,06,14,5.20
2021,04,22,06,15,5.20
2021,04,22,06,16,5.20
2021,04,22,06,17,5.20
2021,04,22,06,18,5.20
2021,04,22,06,19,5.20
2021,04,22,06,20,5.20
2021,04,22,06,21,5.20
2021,04,22,06,22,5.20
2021,04,22,06,23,5.10
2021,04,22,06,24,5.10
2021,04,22,06,25,5.10
2021,04,22,06,26,5.10
2021,04,22,06,27,5.10
2021,04,22,06,28,5.20
2021,04,22,06,29,5.20
2021,04,22,06,30,5.30
2021,04,22,06,31,5.40
2021,04,22,06,32,5.50
2021,04,22,06,33,5.70
2021,04,22,06,34,5.70
2021,04,22,06,35,5.70
2021,04,22,06,36,5.70
2021,04,22,06,37,5.70
2021,04,22,06,38,5.80
2021,04,22,06,39,5.80
2021,04,22,06,40,5.80
2021,04,22,06,41,5.90
2021,04,22,06,42,5.90
2021,04,22,06,43,6.00
2021,04,22,06,44,6.00
2021,04,22,06,45,6.10
2021,04,22,06,46,6.20
2021,04,22,06,47,6.20
2021,04,22,06,48,6.30
2021,04,22,06,49,6.40
2021,04,22,06,50,6.30
2021,04,22,06,51,6.20
2021,04,22,06,52,6.20
2021,04,22,06,53,6.20
2021,04,22,06,54,6.30
2021,04,22,06,55,6.30
2021,04,22,06,56,6.30
2021,04,22,06,57,6.30
2021,04,22,06,58,6.20
2021,04,22,06,59,6.20
2021,04,22,07,00,6.20
2021,04,22,07,01,6.20
2021,04,22,07,02,6.20
2021,04,22,07,03,6.30
2021,04,22,07,04,6.40
2021,04,22,07,05,6.60
2021,04,22,07,06,6.70
2021,04,22,07,07,6.80
2021,04,22,07,08,6.90
2021,04,22,07,09,7.00
2021,04,22,07,10,7.10
2021,04,22,07,11,7.20
2021,04,22,07,12,7.30
2021,04,22,07,13,7.30
2021,04,22,07,14,7.30
2021,04,22,07,15,7.30
2021,04,22,07,16,7.30
2021,04,22,07,17,7.20
2021,04,22,07,18,7.30
2021,04,22,07,19,7.30
2021,04,22,07,20,7.30
2021,04,22,07,21,7.30
2021,04,22,07,22,7.30
2021,04,22,07,23,7.30
2021,04,22,07,24,7.40
2021,04,22,07,25,7.50
2021,04,22,07,26,7.50
2021,04,22,07,27,7.50
2021,04,22,07,28,7.50
2021,04,22,07,29,7.50
2021,04,22,07,30,7.50
2021,04,22,07,31,7.60
2021,04,22,07,32,7.70
2021,04,22,07,33,7.80
2021,04,22,07,34,7.80
2021,04,22,07,35,7.90
2021,04,22,07,36,8.00
2021,04,22,07,37,8.10
2021,04,22,07,38,8.20
2021,04,22,07,39,8.40
2021,04,22,07,40,8.50
2021,04,22,07,41,8.60
2021,04,22,07,42,8.70
2021,04,22,07,43,8.70
2021,04,22,07,44,8.80
2021,04,22,07,45,8.80
2021,04,22,07,46,8.90
2021,04,22,07,47,9.00
2021,04,22,07,48,9.00
2021,04,22,07,49,9.10
2021,04,22,07,50,9.20
2021,04,22,07,51,9.30
2021,04,22,07,52,9.50
2021,04,22,07,53,9.60
2021,04,22,07,54,9.70
2021,04,22,07,55,9.80
2021,04,22,07,56,9.80
2021,04,22,07,57,9.90
2021,04,22,07,58,9.90
2021,04,22,07,59,10.00
2021,04,22,08,00,10.10
2021,04,22,08,01,10.10
2021,04,22,08,02,10.10
2021,04,22,08,03,10.20
2021,04,22,08,04,10.20
2021,04,22,08,05,10.20
2021,04,22,08,06,10.30
2021,04,22,08,07,10.30
2021,04,22,08,08,10.30
2021,04,22,08,09,10.30
2021,04,22,08,10,10.30
2021,04,22,08,11,10.40
2021,04,22,08,12,10.40
2021,04,22,08,13,10.50
2021,04,22,08,14,10.60
2021,04,22,08,15,10.60
2021,04,22,08,16,10.60
2021,04,22,08,17,10.60
2021,04,22,08,18,10.60
2021,04,22,08,19,10.70
2021,04,22,08,20,10.70
2021,04,22,08,21,10.70
2021,04,22,08,22,10.80
2021,04,22,08,23,10.80
2021,04,22,08,24,10.90
2021,04,22,08,25,10.90
2021,04,22,08,26,11.00
2021,04,22,08,27,11.10
2021,04,22,08,28,11.20
2021,04,22,08,29,11.30
2021,04,22,08,30,11.40
2021,04,22,08,31,11.40
2021,04,22,08,32,11.40
2021,04,22,08,33,11.40
2021,04,22,08,34,11.40
2021,04,22,08,35,11.40
2021,04,22,08,36,11.50
2021,04,22,08,37,11.60
2021,04,22,08,38,11.50
2021,04,22,08,39,11.40
2021,04,22,08,40,11.40
2021,04,22,08,41,11.40
2021,04,22,08,42,11.40
2021,04,22,08,43,11.40
2021,04,22,08,44,11.30
2021,04,22,08,45,11.30
2021,04,22,08,46,11.30
2021,04,22,08,47,11.40
2021,04,22,08,48,11.30
2021,04,22,08,49,11.30
2021,04,22,08,50,11.30
2021,04,22,08,51,11.30
2021,04,22,08,52,11.30
2021,04,22,08,53,11.30
2021,04,22,08,54,11.30
2021,04,22,08,55,11.20
2021,04,22,08,56,11.20
2021,04,22,08,57,11.10
2021,04,22,08,58,11.10
2021,04,22,08,59,11.10
2021,04,22,09,00,11.10
2021,04,22,09,01,11.10
2021,04,22,09,02,11.10
2021,04,22,09,03,11.20
2021,04,22,09,04,11.20
2021,04,22,09,05,11.20
2021,04,22,09,06,11.20
2021,04,22,09,07,11.10
2021,04,22,09,08,11.10
2021,04,22,09,09,11.10
2021,04,22,09,10,11.10
2021,04,22,09,11,11.10
2021,04,22,09,12,11.10
2021,04,22,09,13,11.10
2021,04,22,09,14,11.10
2021,04,22,09,15,11.10
2021,04,22,09,16,11.10
2021,04,22,09,17,11.10
2021,04,22,09,18,11.10
2021,04,22,09,19,11.10
2021,04,22,09,20,11.10
2021,04,22,09,21,11.10
2021,04,22,09,22,11.10
2021,04,22,09,23,11.10
2021,04,22,09,24,11.10
2021,04,22,09,25,11.10
2021,04,22,09,26,11.00
2021,04,22,09,27,10.90
2021,04,22,09,28,10.90
2021,04,22,09,29,10.90
2021,04,22,09,30,10.90
2021,04,22,09,31,10.90
2021,04,22,09,32,10.90
2021,04,22,09,33,10.90
2021,04,22,09,34,10.90
2021,04,22,09,35,10.90
2021,04,22,09,36,10.90
2021,04,22,09,37,10.90
2021,04,22,09,38,10.90
2021,04,22,09,39,10.90
2021,04,22,09,40,10.90
2021,04,22,09,41,10.90
2021,04,22,09,42,10.90
2021,04,22,09,43,10.90
2021,04,22,09,44,10.90
2021,04,22,09,45,10.90
2021,04,22,09,46,10.90
2021,04,22,09,47,10.90
2021,04,22,09,48,11.00
2021,04,22,09,49,11.10
2021,04,22,09,50,11.10
2021,04,22,09,51,11.10
2021,04,22,09,52,11.20
2021,04,22,09,53,11.10
2021,04,22,09,54,11.10
2021,04,22,09,55,11.10
2021,04,22,09,56,11.10
2021,04,22,09,57,11.10
2021,04,22,09,58,11.10
2021,04,22,09,59,11.10
2021,04,22,10,00,11.10
2021,04,22,10,01,11.10
2021,04,22,10,02,11.10
2021,04,22,10,03,11.10
2021,04,22,10,04,11.20
2021,04,22,10,05,11.20
2021,04,22,10,06,11.20
2021,04,22,10,07,11.30
2021,04,22,10,08,11.40
2021,04,22,10,09,11.40
2021,04,22,10,10,11.40
2021,04,22,10,11,11.40
2021,04,22,10,12,11.40
2021,04,22,10,13,11.50
2021,04,22,10,14,11.60
2021,04,22,10,15,11.60
2021,04,22,10,16,11.60
2021,04,22,10,17,11.70
2021,04,22,10,18,11.70
2021,04,22,10,19,11.80
2021,04,22,10,20,11.90
2021,04,22,10,21,12.00
2021,04,22,10,22,12.10
2021,04,22,10,23,12.10
2021,04,22,10,24,12.20
2021,04,22,10,25,12.20
2021,04,22,10,26,12.30
2021,04,22,10,27,12.30
2021,04,22,10,28,12.30
2021,04,22,10,29,12.30
2021,04,22,10,30,12.40
2021,04,22,10,31,12.50
2021,04,22,10,32,12.50
2021,04,22,10,33,12.60
2021,04,22,10,34,12.70
2021,04,22,10,35,12.80
2021,04,22,10,36,12.90
2021,04,22,10,37,12.90
2021,04,22,10,38,13.00
2021,04,22,10,39,13.00
2021,04,22,10,40,12.90
2021,04,22,10,41,13.00
2021,04,22,10,42,13.00
2021,04,22,10,43,13.00
2021,04,22,10,44,13.00
2021,04,22,10,45,13.10
2021,04,22,10,46,13.10
2021,04,22,10,47,13.10
2021,04,22,10,48,13.00
2021,04,22,10,49,13.00
2021,04,22,10,50,13.00
2021,04,22,10,51,13.00
2021,04,22,10,52,13.10
2021,04,22,10,53,13.10
2021,04,22,10,54,13.10
2021,04,22,10,55,13.00
2021,04,22,10,56,12.90
2021,04,22,10,57,12.90
2021,04,22,10,58,12.90
2021,04,22,10,59,12.80
2021,04,22,11,00,12.80
2021,04,22,11,01,12.80
2021,04,22,11,02,12.80
2021,04,22,11,03,12.80
2021,04,22,11,04,12.80
2021,04,22,11,05,12.80
2021,04,22,11,06,12.80
2021,04,22,11,07,12.90
2021,04,22,11,08,13.00
2021,04,22,11,09,13.10
2021,04,22,11,10,13.20
2021,04,22,11,11,13.30
2021,04,22,11,12,13.30
2021,04,22,11,13,13.40
2021,04,22,11,14,13.40
2021,04,22,11,15,13.30
2021,04,22,11,16,13.10
2021,04,22,11,17,13.10
2021,04,22,11,18,13.00
2021,04,22,11,19,13.10
2021,04,22,11,20,13.20
2021,04,22,11,21,13.30
2021,04,22,11,22,13.40
2021,04,22,11,23,13.50
2021,04,22,11,24,13.50
2021,04,22,11,25,13.70
2021,04,22,11,26,13.70
2021,04,22,11,27,13.70
2021,04,22,11,28,13.70
2021,04,22,11,29,13.70
2021,04,22,11,30,13.80
2021,04,22,11,31,13.80
2021,04,22,11,32,13.80
2021,04,22,11,33,13.70
2021,04,22,11,34,13.60
2021,04,22,11,35,13.50
2021,04,22,11,36,13.50
2021,04,22,11,37,13.50
2021,04,22,11,38,13.70
2021,04,22,11,39,13.80
2021,04,22,11,40,13.80
2021,04,22,11,41,13.90
2021,04,22,11,42,14.00
2021,04,22,11,43,14.10
2021,04,22,11,44,14.20
2021,04,22,11,45,14.30
2021,04,22,11,46,14.40
2021,04,22,11,47,14.50
2021,04,22,11,48,14.60
2021,04,22,11,49,14.60
2021,04,22,11,50,14.50
2021,04,22,11,51,14.50
2021,04,22,11,52,14.50
2021,04,22,11,53,14.50
2021,04,22,11,54,14.50
2021,04,22,11,55,14.50
2021,04,22,11,56,14.60
2021,04,22,11,57,14.70
2021,04,22,11,58,14.80
2021,04,22,11,59,14.80
2021,04,22,12,00,14.80
2021,04,22,12,01,14.90
2021,04,22,12,02,14.90
2021,04,22,12,03,14.90
2021,04,22,12,04,15.00
2021,04,22,12,05,15.00
2021,04,22,12,06,14.90
2021,04,22,12,07,14.80
2021,04,22,12,08,14.80
2021,04,22,12,09,14.70
2021,04,22,12,10,14.70
2021,04,22,12,11,14.70
2021,04,22,12,12,14.70
2021,04,22,12,13,14.70
2021,04,22,12,14,14.80
2021,04,22,12,15,14.80
2021,04,22,12,16,14.90
2021,04,22,12,17,15.00
2021,04,22,12,18,15.20
2021,04,22,12,19,15.20
2021,04,22,12,20,15.10
2021,04,22,12,21,14.90
2021,04,22,12,22,14.90
2021,04,22,12,23,14.80
2021,04,22,12,24,14.80
2021,04,22,12,25,14.80
2021,04,22,12,26,14.80
2021,04,22,12,27,14.90
2021,04,22,12,28,14.90
2021,04,22,12,29,14.90
2021,04,22,12,30,14.90
2021,04,22,12,31,14.80
2021,04,22,12,32,14.80
2021,04,22,12,33,14.80
2021,04,22,12,34,14.80
2021,04,22,12,35,14.70
2021,04,22,12,36,14.70
2021,04,22,12,37,14.80
2021,04,22,12,38,14.80
2021,04,22,12,39,14.80
2021,04,22,12,40,14.90
2021,04,22,12,41,14.90
2021,04,22,12,42,14.90
2021,04,22,12,43,14.90
2021,04,22,12,44,14.90
2021,04,22,12,45,14.90
2021,04,22,12,46,14.80
2021,04,22,12,47,15.00
2021,04,22,12,48,15.10
2021,04,22,12,49,15.10
2021,04,22,12,50,15.20
2021,04,22,12,51,15.10
2021,04,22,12,52,15.00
2021,04,22,12,53,15.00
2021,04,22,12,54,15.10
2021,04,22,12,55,15.20
2021,04,22,12,56,15.20
2021,04,22,12,57,15.20
2021,04,22,12,58,15.10
2021,04,22,12,59,15.10
2021,04,22,13,00,15.20
2021,04,22,13,01,15.30
2021,04,22,13,02,15.50
2021,04,22,13,03,15.50
2021,04,22,13,04,15.40
2021,04,22,13,05,15.50
2021,04,22,13,06,15.50
2021,04,22,13,07,15.60
2021,04,22,13,08,15.70
2021,04,22,13,09,15.70
2021,04,22,13,10,15.60
2021,04,22,13,11,15.50
2021,04,22,13,12,15.50
2021,04,22,13,13,15.50
2021,04,22,13,14,15.50
2021,04,22,13,15,15.50
2021,04,22,13,16,15.50
2021,04,22,13,17,15.70
2021,04,22,13,18,15.90
2021,04,22,13,19,15.90
2021,04,22,13,20,15.80
2021,04,22,13,21,15.90
2021,04,22,13,22,15.90
2021,04,22,13,23,16.00
2021,04,22,13,24,16.10
2021,04,22,13,25,15.90
2021,04,22,13,26,15.80
2021,04,22,13,27,15.90
2021,04,22,13,28,15.70
2021,04,22,13,29,15.50
2021,04,22,13,30,15.50
2021,04,22,13,31,15.50
2021,04,22,13,32,15.60
2021,04,22,13,33,15.70
2021,04,22,13,34,15.70
2021,04,22,13,35,15.50
2021,04,22,13,36,15.40
2021,04,22,13,37,15.40
2021,04,22,13,38,15.50
2021,04,22,13,39,15.40
2021,04,22,13,40,15.20
2021,04,22,13,41,15.00
2021,04,22,13,42,15.00
2021,04,22,13,43,15.00
2021,04,22,13,44,15.10
2021,04,22,13,45,15.10
2021,04,22,13,46,15.10
2021,04,22,13,47,15.10
2021,04,22,13,48,15.00
2021,04,22,13,49,15.00
2021,04,22,13,50,15.00
2021,04,22,13,51,15.10
2021,04,22,13,52,15.10
2021,04,22,13,53,15.20
2021,04,22,13,54,15.30
2021,04,22,13,55,15.30
2021,04,22,13,56,15.20
2021,04,22,13,57,15.20
2021,04,22,13,58,15.30
2021,04,22,13,59,15.30
2021,04,22,14,00,15.30
2021,04,22,14,01,15.20
2021,04,22,14,02,15.20
2021,04,22,14,03,15.20
2021,04,22,14,04,15.50
2021,04,22,14,05,15.60
2021,04,22,14,06,15.70
2021,04,22,14,07,15.80
2021,04,22,14,08,15.90
2021,04,22,14,09,15.80
2021,04,22,14,10,15.80
2021,04,22,14,11,15.70
2021,04,22,14,12,15.60
2021,04,22,14,13,15.50
2021,04,22,14,14,15.30
2021,04,22,14,15,15.30
2021,04,22,14,16,15.50
2021,04,22,14,17,15.50
2021,04,22,14,18,15.50
2021,04,22,14,19,15.60
2021,04,22,14,20,15.60
2021,04,22,14,21,15.70
2021,04,22,14,22,15.80
2021,04,22,14,23,15.80
2021,04,22,14,24,15.60
2021,04,22,14,25,15.70
2021,04,22,14,26,15.60
2021,04,22,14,27,15.60
2021,04,22,14,28,15.70
2021,04,22,14,29,15.60
2021,04,22,14,30,15.60
2021,04,22,14,31,15.60
2021,04,22,14,32,15.50
2021,04,22,14,33,15.40
2021,04,22,14,34,15.50
2021,04,22,14,35,15.40
2021,04,22,14,36,15.40
2021,04,22,14,37,15.50
2021,04,22,14,38,15.50
2021,04,22,14,39,15.50
2021,04,22,14,40,15.60
2021,04,22,14,41,15.70
2021,04,22,14,42,15.70
2021,04,22,14,43,15.70
2021,04,22,14,44,15.90
2021,04,22,14,45,16.00
2021,04,22,14,46,16.10
2021,04,22,14,47,16.10
2021,04,22,14,48,16.10
2021,04,22,14,49,16.10
2021,04,22,14,50,16.10
2021,04,22,14,51,16.10
2021,04,22,14,52,15.90
2021,04,22,14,53,15.80
2021,04,22,14,54,15.80
2021,04,22,14,55,15.80
2021,04,22,14,56,15.80
2021,04,22,14,57,15.80
2021,04,22,14,58,15.80
2021,04,22,14,59,15.90
2021,04,22,15,00,15.90
2021,04,22,15,01,16.10
2021,04,22,15,02,16.30
2021,04,22,15,03,16.70
2021,04,22,15,04,16.90
2021,04,22,15,05,17.00
2021,04,22,15,06,17.10
2021,04,22,15,07,17.00
2021,04,22,15,08,16.90
2021,04,22,15,09,16.80
2021,04,22,15,10,16.80
2021,04,22,15,11,16.80
2021,04,22,15,12,16.80
2021,04,22,15,13,16.90
2021,04,22,15,14,16.90
2021,04,22,15,15,16.90
2021,04,22,15,16,17.00
2021,04,22,15,17,17.10
2021,04,22,15,18,17.30
2021,04,22,15,19,17.30
2021,04,22,15,20,17.30
2021,04,22,15,21,17.40
2021,04,22,15,22,17.30
2021,04,22,15,23,17.20
2021,04,22,15,24,17.10
2021,04,22,15,25,17.00
2021,04,22,15,26,16.90
2021,04,22,15,27,16.90
2021,04,22,15,28,17.00
2021,04,22,15,29,16.90
2021,04,22,15,30,16.90
2021,04,22,15,31,16.80
2021,04,22,15,32,16.70
2021,04,22,15,33,16.60
2021,04,22,15,34,16.50
2021,04,22,15,35,16.40
2021,04,22,15,36,16.30
2021,04,22,15,37,16.30
2021,04,22,15,38,16.40
2021,04,22,15,39,16.50
2021,04,22,15,40,16.60
2021,04,22,15,41,16.60
2021,04,22,15,42,16.70
2021,04,22,15,43,16.70
2021,04,22,15,44,16.80
2021,04,22,15,45,17.00
2021,04,22,15,46,17.00
2021,04,22,15,47,17.00
2021,04,22,15,48,16.90
2021,04,22,15,49,16.90
2021,04,22,15,50,16.90
2021,04,22,15,51,16.90
2021,04,22,15,52,16.90
2021,04,22,15,53,16.90
2021,04,22,15,54,17.00
2021,04,22,15,55,17.10
2021,04,22,15,56,17.20
2021,04,22,15,57,17.20
2021,04,22,15,58,17.20
2021,04,22,15,59,17.20
2021,04,22,16,00,17.30
2021,04,22,16,01,17.20
2021,04,22,16,02,17.00
2021,04,22,16,03,17.00
2021,04,22,16,04,17.10
2021,04,22,16,05,17.00
2021,04,22,16,06,16.90
2021,04,22,16,07,16.90
2021,04,22,16,08,17.00
2021,04,22,16,09,17.00
2021,04,22,16,10,17.10
2021,04,22,16,11,17.10
2021,04,22,16,12,17.20
2021,04,22,16,13,17.20
2021,04,22,16,14,17.20
2021,04,22,16,15,17.10
2021,04,22,16,16,17.10
2021,04,22,16,17,17.10
2021,04,22,16,18,17.00
2021,04,22,16,19,16.80
2021,04,22,16,20,16.50
2021,04,22,16,21,16.20
2021,04,22,16,22,16.10
2021,04,22,16,23,16.00
2021,04,22,16,24,15.90
2021,04,22,16,25,15.90
2021,04,22,16,26,15.80
2021,04,22,16,27,15.60
2021,04,22,16,28,15.50
2021,04,22,16,29,15.40
2021,04,22,16,30,15.40
2021,04,22,16,31,15.50
2021,04,22,16,32,15.60
2021,04,22,16,33,15.70
2021,04,22,16,34,15.80
2021,04,22,16,35,15.80
2021,04,22,16,36,15.80
2021,04,22,16,37,15.80
2021,04,22,16,38,15.70
2021,04,22,16,39,15.80
2021,04,22,16,40,15.80
2021,04,22,16,41,15.70
2021,04,22,16,42,15.60
2021,04,22,16,43,15.50
2021,04,22,16,44,15.50
2021,04,22,16,45,15.50
2021,04,22,16,46,15.50
2021,04,22,16,47,15.40
2021,04,22,16,48,15.30
2021,04,22,16,49,15.30
2021,04,22,16,50,15.20
2021,04,22,16,51,15.20
2021,04,22,16,52,15.10
2021,04,22,16,53,15.10
2021,04,22,16,54,15.20
2021,04,22,16,55,15.30
2021,04,22,16,56,15.40
2021,04,22,16,57,15.40
2021,04,22,16,58,15.50
2021,04,22,16,59,15.50
2021,04,22,17,00,15.50
2021,04,22,17,01,15.50
2021,04,22,17,02,15.50
2021,04,22,17,03,15.50
2021,04,22,17,04,15.60
2021,04,22,17,05,15.60
2021,04,22,17,06,15.70
2021,04,22,17,07,15.80
2021,04,22,17,08,15.90
2021,04,22,17,09,15.90
2021,04,22,17,10,16.00
2021,04,22,17,11,16.10
2021,04,22,17,12,16.10
2021,04,22,17,13,16.10
2021,04,22,17,14,16.10
2021,04,22,17,15,16.10
2021,04,22,17,16,16.10
2021,04,22,17,17,16.10
2021,04,22,17,18,16.00
2021,04,22,17,19,15.80
2021,04,22,17,20,15.80
2021,04,22,17,21,15.80
2021,04,22,17,22,15.80
2021,04,22,17,23,15.70
2021,04,22,17,24,15.60
2021,04,22,17,25,15.50
2021,04,22,17,26,15.50
2021,04,22,17,27,15.40
2021,04,22,17,28,15.30
2021,04,22,17,29,15.10
2021,04,22,17,30,15.00
2021,04,22,17,31,14.80
2021,04,22,17,32,14.70
2021,04,22,17,33,14.70
2021,04,22,17,34,14.60
2021,04,22,17,35,14.70
2021,04,22,17,36,14.70
2021,04,22,17,37,14.60
2021,04,22,17,38,14.70
2021,04,22,17,39,14.60
2021,04,22,17,40,14.50